QPF
0.01 0.01 0.03 0.05 0.10 0.11 0.06 0.03 0.02 0.01 0.01 0.01 0.00 0.00 0.01 0.03 0.05 0.09 0.12 0.12 0.11 0.09 0.10 0.08 0.07 0.06 0.05 0.08 0.10 0.09 0.12 0.13 0.10 0.12 0.12 0.11 0.13 0.19 0.18 0.20 0.23 0.24 0.25 0.25 0.33 0.33 0.29 0.42 0.43
0.01 0.01 0.04 0.09 0.15 0.08 0.04 0.02 0.01 0.01 0.00 0.00 0.00 0.01 0.01 0.01 0.02 0.05 0.09 0.08 0.05 0.08 0.09 0.07 0.05 0.06 0.07 0.10 0.10 0.09 0.11 0.13 0.12 0.11 0.11 0.11 0.15 0.19 0.23 0.26 0.29 0.39 0.42 0.39 0.36 0.36 0.33 0.39 0.33
0.01 0.01 0.07 0.12 0.08 0.04 0.03 0.01 0.00 0.00 0.00 0.00 0.00 0.00 0.01 0.02 0.03 0.06 0.07 0.06 0.05 0.05 0.06 0.05 0.05 0.06 0.10 0.14 0.12 0.11 0.12 0.13 0.13 0.12 0.13 0.16 0.17 0.17 0.21 0.24 0.30 0.37 0.37 0.34 0.31 0.31 0.33 0.28 0.23
0.01 0.04 0.09 0.08 0.04 0.01 0.01 0.01 0.00 0.00 0.00 0.00 0.00 0.01 0.01 0.03 0.03 0.05 0.04 0.03 0.04 0.03 0.04 0.04 0.04 0.05 0.10 0.16 0.13 0.09 0.09 0.07 0.10 0.13 0.17 0.17 0.16 0.16 0.19 0.21 0.29 0.28 0.27 0.23 0.25 0.33 0.35 0.27 0.23
0.02 0.08 0.10 0.05 0.01 0.01 0.00 0.01 0.01 0.01 0.00 0.00 0.00 0.00 0.02 0.03 0.02 0.03 0.03 0.02 0.02 0.03 0.03 0.03 0.03 0.03 0.06 0.14 0.16 0.10 0.08 0.06 0.06 0.08 0.11 0.15 0.17 0.19 0.24 0.24 0.25 0.22 0.20 0.19 0.25 0.32 0.32 0.27 0.26
0.05 0.10 0.08 0.04 0.02 0.01 0.00 0.00 0.01 0.02 0.00 0.00 0.01 0.01 0.02 0.03 0.03 0.03 0.02 0.02 0.01 0.02 0.02 0.02 0.03 0.04 0.04 0.08 0.14 0.14 0.10 0.07 0.05 0.06 0.10 0.14 0.17 0.19 0.28 0.34 0.29 0.19 0.16 0.18 0.26 0.37 0.39 0.31 0.30
0.05 0.10 0.08 0.04 0.03 0.01 0.00 0.00 0.01 0.02 0.01 0.00 0.00 0.01 0.02 0.04 0.03 0.02 0.01 0.01 0.00 0.01 0.01 0.02 0.03 0.04 0.04 0.05 0.06 0.09 0.10 0.11 0.11 0.11 0.12 0.14 0.15 0.15 0.23 0.36 0.30 0.19 0.17 0.19 0.21 0.23 0.25 0.26 0.29
0.04 0.10 0.06 0.03 0.02 0.01 0.00 0.00 0.00 0.01 0.01 0.01 0.00 0.01 0.01 0.02 0.01 0.00 0.00 0.01 0.01 0.01 0.01 0.03 0.05 0.07 0.08 0.06 0.07 0.06 0.07 0.11 0.19 0.18 0.18 0.20 0.22 0.23 0.33 0.36 0.28 0.23 0.20 0.16 0.12 0.11 0.12 0.13 0.11
0.04 0.11 0.05 0.02 0.01 0.00 0.00 0.00 0.00 0.00 0.00 0.00 0.00 0.01 0.01 0.01 0.01 0.00 0.01 0.02 0.02 0.02 0.02 0.04 0.06 0.08 0.10 0.09 0.09 0.08 0.08 0.13 0.17 0.17 0.17 0.21 0.30 0.32 0.34 0.25 0.16 0.12 0.09 0.08 0.07 0.06 0.07 0.07 0.06
0.04 0.11 0.04 0.02 0.01 0.00 0.00 0.00 0.00 0.01 0.01 0.01 0.01 0.01 0.01 0.01 0.02 0.01 0.01 0.01 0.03 0.04 0.03 0.02 0.02 0.06 0.08 0.08 0.10 0.12 0.11 0.14 0.14 0.13 0.13 0.13 0.16 0.16 0.14 0.14 0.14 0.11 0.07 0.06 0.07 0.06 0.05 0.04 0.04
0.02 0.04 0.02 0.01 0.01 0.01 0.01 0.01 0.01 0.01 0.01 0.01 0.02 0.02 0.01 0.01 0.02 0.02 0.01 0.01 0.02 0.03 0.02 0.01 0.01 0.03 0.04 0.08 0.08 0.08 0.10 0.11 0.13 0.10 0.09 0.09 0.09 0.11 0.11 0.11 0.13 0.13 0.10 0.08 0.10 0.10 0.06 0.04 0.04
0.01 0.01 0.01 0.01 0.01 0.01 0.01 0.01 0.01 0.01 0.01 0.01 0.01 0.01 0.01 0.01 0.01 0.02 0.02 0.02 0.02 0.02 0.01 0.01 0.02 0.03 0.05 0.06 0.06 0.06 0.07 0.09 0.08 0.07 0.05 0.06 0.08 0.10 0.11 0.12 0.11 0.12 0.10 0.08 0.08 0.08 0.07 0.06 0.06
0.00 0.00 0.00 0.00 0.00 0.00 0.00 0.00 0.00 0.01 0.02 0.01 0.02 0.02 0.01 0.01 0.01 0.01 0.01 0.01 0.01 0.00 0.00 0.01 0.02 0.04 0.06 0.07 0.07 0.06 0.07 0.07 0.06 0.08 0.06 0.06 0.05 0.06 0.07 0.08 0.08 0.08 0.07 0.08 0.09 0.08 0.07 0.07 0.07
0.00 0.00 0.00 0.00 0.00 0.00 0.00 0.00 0.00 0.01 0.02 0.01 0.02 0.02 0.02 0.01 0.01 0.01 0.01 0.01 0.00 0.00 0.01 0.01 0.02 0.03 0.05 0.04 0.04 0.05 0.05 0.05 0.04 0.05 0.04 0.03 0.03 0.04 0.05 0.06 0.07 0.07 0.07 0.08 0.10 0.12 0.10 0.08 0.08
0.00 0.01 0.01 0.01 0.01 0.00 0.01 0.02 0.01 0.01 0.01 0.01 0.01 0.01 0.01 0.01 0.02 0.02 0.02 0.02 0.02 0.02 0.02 0.02 0.02 0.03 0.04 0.03 0.03 0.04 0.04 0.03 0.03 0.03 0.03 0.02 0.02 0.04 0.04 0.05 0.06 0.04 0.05 0.06 0.08 0.10 0.09 0.08 0.09
0.01 0.01 0.01 0.01 0.00 0.00 0.01 0.04 0.01 0.01 0.01 0.01 0.01 0.01 0.01 0.01 0.01 0.02 0.02 0.03 0.04 0.04 0.04 0.04 0.03 0.02 0.01 0.02 0.02 0.03 0.03 0.02 0.02 0.02 0.02 0.02 0.02 0.02 0.02 0.03 0.03 0.03 0.03 0.04 0.03 0.05 0.06 0.06 0.05
0.01 0.01 0.01 0.01 0.00 0.00 0.00 0.01 0.01 0.00 0.00 0.01 0.01 0.01 0.01 0.01 0.01 0.02 0.02 0.02 0.03 0.04 0.04 0.02 0.01 0.01 0.01 0.02 0.03 0.02 0.02 0.01 0.01 0.02 0.02 0.03 0.03 0.03 0.02 0.02 0.03 0.02 0.02 0.03 0.02 0.04 0.05 0.06 0.05
0.01 0.01 0.01 0.01 0.00 0.00 0.00 0.01 0.01 0.00 0.00 0.00 0.01 0.01 0.01 0.01 0.01 0.01 0.01 0.02 0.02 0.02 0.02 0.01 0.01 0.02 0.02 0.02 0.02 0.02 0.02 0.01 0.01 0.01 0.02 0.03 0.03 0.04 0.04 0.03 0.03 0.02 0.03 0.04 0.03 0.04 0.04 0.04 0.05
0.01 0.01 0.01 0.01 0.00 0.00 0.01 0.02 0.01 0.00 0.00 0.00 0.01 0.03 0.02 0.00 0.01 0.01 0.00 0.00 0.00 0.01 0.01 0.01 0.01 0.02 0.02 0.03 0.02 0.02 0.01 0.01 0.01 0.01 0.01 0.01 0.02 0.03 0.03 0.02 0.03 0.03 0.03 0.04 0.05 0.05 0.05 0.04 0.04
0.00 0.01 0.01 0.00 0.00 0.01 0.02 0.05 0.03 0.01 0.00 0.00 0.01 0.02 0.02 0.01 0.00 0.01 0.01 0.01 0.01 0.01 0.01 0.01 0.01 0.01 0.02 0.02 0.02 0.02 0.02 0.01 0.01 0.02 0.02 0.01 0.01 0.02 0.02 0.02 0.03 0.02 0.03 0.04 0.06 0.07 0.06 0.06 0.05
0.00 0.00 0.01 0.00 0.00 0.01 0.01 0.05 0.03 0.01 0.00 0.00 0.00 0.00 0.01 0.01 0.02 0.01 0.00 0.00 0.00 0.01 0.02 0.02 0.02 0.02 0.01 0.01 0.01 0.01 0.01 0.01 0.02 0.02 0.02 0.02 0.01 0.01 0.01 0.02 0.02 0.02 0.04 0.07 0.08 0.09 0.07 0.06 0.06
0.01 0.00 0.00 0.00 0.01 0.02 0.02 0.05 0.04 0.02 0.01 0.01 0.00 0.00 0.00 0.00 0.01 0.02 0.01 0.00 0.01 0.01 0.01 0.01 0.01 0.01 0.01 0.01 0.02 0.02 0.03 0.02 0.02 0.03 0.02 0.02 0.01 0.01 0.01 0.01 0.01 0.02 0.05 0.07 0.06 0.07 0.07 0.06 0.06
0.01 0.00 0.00 0.00 0.01 0.01 0.02 0.05 0.07 0.05 0.03 0.01 0.00 0.00 0.00 0.00 0.02 0.01 0.00 0.00 0.01 0.01 0.00 0.00 0.01 0.01 0.02 0.02 0.03 0.03 0.02 0.02 0.02 0.02 0.02 0.02 0.02 0.01 0.00 0.00 0.01 0.02 0.04 0.04 0.04 0.05 0.06 0.06 0.05
0.01 0.01 0.01 0.01 0.02 0.02 0.03 0.05 0.07 0.06 0.04 0.01 0.00 0.01 0.01 0.00 0.01 0.02 0.01 0.00 0.00 0.00 0.00 0.00 0.01 0.01 0.02 0.02 0.02 0.03 0.02 0.03 0.03 0.02 0.03 0.02 0.02 0.02 0.01 0.01 0.02 0.02 0.02 0.03 0.03 0.04 0.05 0.06 0.06
0.01 0.01 0.02 0.02 0.02 0.03 0.03 0.04 0.04 0.03 0.03 0.02 0.01 0.01 0.01 0.01 0.01 0.01 0.01 0.01 0.00 0.00 0.00 0.01 0.01 0.02 0.02 0.02 0.02 0.02 0.02 0.03 0.03 0.02 0.02 0.03 0.01 0.01 0.03 0.03 0.05 0.04 0.04 0.03 0.04 0.04 0.05 0.06 0.06
0.01 0.01 0.02 0.03 0.03 0.04 0.05 0.06 0.04 0.01 0.01 0.01 0.01 0.00 0.00 0.00 0.01 0.01 0.01 0.01 0.00 0.00 0.00 0.01 0.02 0.02 0.01 0.01 0.02 0.02 0.02 0.02 0.02 0.04 0.03 0.04 0.03 0.02 0.03 0.05 0.05 0.04 0.04 0.04 0.06 0.05 0.05 0.06 0.05
0.01 0.01 0.01 0.02 0.03 0.03 0.06 0.06 0.02 0.01 0.03 0.02 0.01 0.01 0.00 0.00 0.00 0.01 0.01 0.00 0.01 0.01 0.01 0.01 0.02 0.02 0.01 0.02 0.02 0.02 0.02 0.02 0.02 0.03 0.02 0.03 0.03 0.03 0.03 0.03 0.04 0.03 0.04 0.05 0.05 0.05 0.06 0.07 0.06
0.00 0.01 0.01 0.02 0.03 0.04 0.04 0.04 0.02 0.01 0.02 0.02 0.01 0.01 0.00 0.00 0.00 0.01 0.01 0.01 0.01 0.01 0.01 0.01 0.01 0.02 0.02 0.02 0.02 0.02 0.02 0.02 0.02 0.02 0.01 0.02 0.02 0.03 0.03 0.02 0.03 0.03 0.03 0.03 0.05 0.05 0.06 0.06 0.06
0.00 0.00 0.01 0.02 0.02 0.02 0.03 0.03 0.01 0.02 0.02 0.01 0.01 0.01 0.02 0.02 0.01 0.00 0.01 0.01 0.01 0.01 0.01 0.01 0.01 0.01 0.03 0.03 0.03 0.04 0.03 0.02 0.02 0.01 0.02 0.02 0.02 0.02 0.02 0.01 0.02 0.02 0.02 0.03 0.04 0.04 0.05 0.04 0.04
0.00 0.00 0.00 0.01 0.01 0.01 0.03 0.04 0.01 0.01 0.01 0.02 0.01 0.01 0.02 0.02 0.02 0.01 0.01 0.01 0.01 0.01 0.01 0.01 0.01 0.01 0.02 0.03 0.03 0.02 0.02 0.03 0.03 0.03 0.03 0.02 0.02 0.01 0.02 0.02 0.02 0.02 0.02 0.03 0.03 0.02 0.03 0.04 0.04
MSLP
1002.67 1003.43 1004.37 1005.34 1006.20 1006.85 1007.22 1007.32 1007.22 1007.04 1006.92 1006.95 1007.18 1007.62 1008.18 1008.77 1009.24 1009.47 1009.41 1009.04 1008.39 1007.54 1006.56 1005.56 1004.59 1003.69 1002.84 1002.06 1001.33 1000.68 1000.13 999.74 999.58 999.68 1000.06 1000.71 1001.56 1002.55 1003.57 1004.56 1005.45 1006.22 1006.88 1007.46 1007.98 1008.48 1008.97 1009.45 1009.91
1002.87 1003.73 1004.71 1005.66 1006.45 1006.99 1007.24 1007.24 1007.08 1006.87 1006.75 1006.80 1007.07 1007.54 1008.12 1008.71 1009.18 1009.44 1009.43 1009.14 1008.62 1007.93 1007.15 1006.36 1005.59 1004.85 1004.16 1003.50 1002.86 1002.27 1001.77 1001.40 1001.23 1001.28 1001.57 1002.08 1002.76 1003.54 1004.36 1005.15 1005.87 1006.52 1007.11 1007.67 1008.20 1008.72 1009.24 1009.74 1010.20
1003.20 1004.16 1005.15 1006.06 1006.75 1007.18 1007.32 1007.23 1007.01 1006.78 1006.67 1006.75 1007.04 1007.51 1008.07 1008.63 1009.07 1009.31 1009.32 1009.11 1008.72 1008.21 1007.65 1007.09 1006.55 1006.02 1005.50 1004.98 1004.45 1003.93 1003.47 1003.11 1002.91 1002.90 1003.08 1003.45 1003.95 1004.53 1005.14 1005.75 1006.33 1006.89 1007.43 1007.98 1008.53 1009.08 1009.63 1010.13 1010.58
1003.58 1004.59 1005.59 1006.44 1007.04 1007.36 1007.41 1007.26 1007.02 1006.80 1006.72 1006.83 1007.13 1007.58 1008.10 1008.59 1008.96 1009.16 1009.17 1009.01 1008.74 1008.41 1008.07 1007.74 1007.44 1007.13 1006.80 1006.43 1006.01 1005.57 1005.15 1004.81 1004.59 1004.51 1004.59 1004.82 1005.15 1005.55 1005.99 1006.45 1006.91 1007.39 1007.90 1008.44 1009.01 1009.58 1010.13 1010.61 1011.02
1003.90 1004.94 1005.91 1006.69 1007.22 1007.46 1007.45 1007.28 1007.06 1006.89 1006.86 1007.01 1007.33 1007.76 1008.21 1008.62 1008.90 1009.02 1009.00 1008.88 1008.70 1008.52 1008.38 1008.28 1008.20 1008.11 1007.97 1007.76 1007.47 1007.12 1006.77 1006.45 1006.22 1006.10 1006.11 1006.22 1006.41 1006.67 1006.96 1007.29 1007.65 1008.07 1008.54 1009.07 1009.63 1010.19 1010.71 1011.14 1011.48
1004.07 1005.09 1006.00 1006.72 1007.18 1007.38 1007.36 1007.22 1007.06 1006.97 1007.02 1007.23 1007.57 1007.97 1008.36 1008.67 1008.85 1008.90 1008.83 1008.72 1008.61 1008.55 1008.58 1008.67 1008.79 1008.90 1008.93 1008.88 1008.72 1008.49 1008.22 1007.96 1007.75 1007.63 1007.59 1007.64 1007.74 1007.88 1008.06 1008.28 1008.56 1008.91 1009.33 1009.82 1010.34 1010.85 1011.30 1011.65 1011.89
1004.06 1005.01 1005.85 1006.49 1006.90 1007.09 1007.10 1007.03 1006.96 1006.98 1007.13 1007.40 1007.77 1008.15 1008.48 1008.71 1008.80 1008.76 1008.66 1008.54 1008.48 1008.51 1008.66 1008.90 1009.18 1009.44 1009.63 1009.71 1009.69 1009.58 1009.41 1009.24 1009.10 1009.02 1008.99 1009.01 1009.06 1009.13 1009.22 1009.36 1009.56 1009.83 1010.19 1010.61 1011.05 1011.47 1011.82 1012.07 1012.20
1003.90 1004.75 1005.50 1006.07 1006.45 1006.64 1006.71 1006.72 1006.76 1006.89 1007.14 1007.48 1007.87 1008.24 1008.53 1008.69 1008.71 1008.62 1008.49 1008.37 1008.34 1008.44 1008.66 1008.99 1009.38 1009.74 1010.04 1010.24 1010.33 1010.34 1010.29 1010.23 1010.19 1010.18 1010.20 1010.24 1010.28 1010.31 1010.36 1010.43 1010.55 1010.74 1011.01 1011.33 1011.68 1011.99 1012.23 1012.36 1012.39
1003.70 1004.44 1005.09 1005.60 1005.95 1006.17 1006.29 1006.39 1006.53 1006.75 1007.07 1007.46 1007.87 1008.24 1008.50 1008.62 1008.61 1008.50 1008.36 1008.26 1008.25 1008.38 1008.64 1009.02 1009.44 1009.86 1010.21 1010.47 1010.65 1010.75 1010.82 1010.87 1010.94 1011.03 1011.13 1011.22 1011.29 1011.32 1011.34 1011.35 1011.41 1011.52 1011.70 1011.92 1012.16 1012.36 1012.50 1012.53 1012.47
1003.58 1004.21 1004.78 1005.24 1005.58 1005.81 1005.99 1006.15 1006.36 1006.65 1007.01 1007.42 1007.83 1008.18 1008.43 1008.55 1008.54 1008.45 1008.33 1008.25 1008.27 1008.42 1008.68 1009.05 1009.46 1009.86 1010.21 1010.49 1010.70 1010.87 1011.01 1011.17 1011.35 1011.54 1011.73 1011.89 1012.00 1012.06 1012.07 1012.06 1012.06 1012.11 1012.20 1012.34 1012.48 1012.59 1012.64 1012.61 1012.50
1003.66 1004.21 1004.71 1005.14 1005.47 1005.72 1005.93 1006.13 1006.37 1006.66 1007.02 1007.42 1007.80 1008.14 1008.39 1008.52 1008.55 1008.50 1008.43 1008.41 1008.46 1008.61 1008.85 1009.17 1009.52 1009.85 1010.15 1010.39 1010.59 1010.77 1010.96 1011.18 1011.44 1011.72 1011.99 1012.22 1012.39 1012.49 1012.51 1012.50 1012.48 1012.48 1012.52 1012.59 1012.67 1012.72 1012.73 1012.66 1012.53
1003.98 1004.49 1004.96 1005.36 1005.70 1005.96 1006.17 1006.38 1006.60 1006.86 1007.17 1007.51 1007.85 1008.16 1008.41 1008.57 1008.66 1008.69 1008.70 1008.73 1008.82 1008.97 1009.18 1009.43 1009.68 1009.92 1010.12 1010.28 1010.42 1010.58 1010.77 1011.02 1011.32 1011.65 1011.98 1012.28 1012.50 1012.64 1012.70 1012.70 1012.68 1012.67 1012.68 1012.72 1012.77 1012.80 1012.80 1012.73 1012.62
1004.55 1005.04 1005.50 1005.89 1006.22 1006.48 1006.69 1006.86 1007.03 1007.22 1007.44 1007.70 1007.98 1008.25 1008.50 1008.70 1008.86 1008.97 1009.07 1009.18 1009.31 1009.46 1009.63 1009.81 1009.97 1010.09 1010.18 1010.25 1010.32 1010.42 1010.58 1010.81 1011.12 1011.47 1011.83 1012.16 1012.43 1012.61 1012.71 1012.74 1012.74 1012.74 1012.75 1012.79 1012.84 1012.88 1012.90 1012.86 1012.79
1005.27 1005.75 1006.20 1006.60 1006.93 1007.17 1007.35 1007.46 1007.55 1007.65 1007.77 1007.93 1008.13 1008.36 1008.61 1008.85 1009.08 1009.29 1009.48 1009.65 1009.82 1009.98 1010.13 1010.24 1010.32 1010.36 1010.36 1010.35 1010.34 1010.38 1010.50 1010.69 1010.97 1011.31 1011.67 1012.00 1012.29 1012.50 1012.63 1012.70 1012.73 1012.75 1012.79 1012.85 1012.92 1012.99 1013.04 1013.04 1013.01
1005.99 1006.46 1006.90 1007.29 1007.60 1007.83 1007.96 1008.01 1008.02 1008.01 1008.03 1008.09 1008.22 1008.42 1008.67 1008.94 1009.23 1009.52 1009.79 1010.03 1010.24 1010.41 1010.55 1010.63 1010.67 1010.65 1010.61 1010.55 1010.51 1010.51 1010.59 1010.74 1010.98 1011.28 1011.60 1011.92 1012.20 1012.42 1012.57 1012.67 1012.74 1012.79 1012.86 1012.94 1013.03 1013.13 1013.21 1013.25 1013.25
1006.56 1007.01 1007.42 1007.79 1008.08 1008.27 1008.36 1008.36 1008.28 1008.19 1008.11 1008.10 1008.17 1008.34 1008.59 1008.90 1009.24 1009.59 1009.92 1010.21 1010.45 1010.64 1010.78 1010.87 1010.90 1010.89 1010.86 1010.82 1010.79 1010.79 1010.85 1010.98 1011.18 1011.43 1011.71 1011.98 1012.24 1012.44 1012.60 1012.72 1012.80 1012.88 1012.96 1013.06 1013.17 1013.28 1013.37 1013.43 1013.46
1006.91 1007.29 1007.66 1007.99 1008.25 1008.42 1008.47 1008.41 1008.27 1008.11 1007.97 1007.90 1007.93 1008.08 1008.34 1008.68 1009.06 1009.46 1009.83 1010.15 1010.42 1010.63 1010.79 1010.90 1010.97 1011.02 1011.05 1011.08 1011.11 1011.17 1011.25 1011.38 1011.55 1011.76 1011.98 1012.21 1012.42 1012.60 1012.74 1012.86 1012.95 1013.03 1013.12 1013.21 1013.31 1013.42 1013.51 1013.58 1013.62
1006.99 1007.29 1007.60 1007.89 1008.12 1008.26 1008.29 1008.19 1008.02 1007.81 1007.63 1007.52 1007.54 1007.69 1007.96 1008.33 1008.74 1009.17 1009.56 1009.90 1010.18 1010.41 1010.59 1010.74 1010.88 1011.02 1011.16 1011.30 1011.43 1011.58 1011.72 1011.88 1012.05 1012.22 1012.39 1012.57 1012.73 1012.87 1012.99 1013.08 1013.17 1013.24 1013.31 1013.39 1013.47 1013.55 1013.63 1013.69 1013.72
1006.85 1007.07 1007.33 1007.59 1007.81 1007.94 1007.95 1007.83 1007.64 1007.40 1007.20 1007.08 1007.10 1007.26 1007.55 1007.94 1008.39 1008.83 1009.23 1009.58 1009.86 1010.09 1010.29 1010.49 1010.70 1010.94 1011.19 1011.45 1011.72 1011.97 1012.20 1012.40 1012.58 1012.74 1012.88 1013.00 1013.12 1013.22 1013.31 1013.38 1013.45 1013.50 1013.55 1013.60 1013.65 1013.70 1013.75 1013.79 1013.82
1006.60 1006.78 1007.01 1007.27 1007.49 1007.63 1007.64 1007.52 1007.31 1007.06 1006.85 1006.73 1006.75 1006.92 1007.24 1007.66 1008.13 1008.59 1009.00 1009.34 1009.62 1009.84 1010.05 1010.28 1010.54 1010.85 1011.21 1011.59 1011.97 1012.33 1012.64 1012.90 1013.10 1013.26 1013.38 1013.47 1013.55 1013.62 1013.68 1013.73 1013.78 1013.81 1013.84 1013.86 1013.88 1013.90 1013.92 1013.94 1013.97
1006.38 1006.55 1006.81 1007.11 1007.37 1007.53 1007.56 1007.45 1007.23 1006.97 1006.74 1006.61 1006.63 1006.82 1007.16 1007.61 1008.11 1008.59 1009.01 1009.35 1009.61 1009.82 1010.02 1010.24 1010.52 1010.88 1011.29 1011.75 1012.21 1012.65 1013.03 1013.34 1013.57 1013.73 1013.85 1013.92 1013.98 1014.03 1014.08 1014.12 1014.15 1014.18 1014.19 1014.19 1014.19 1014.18 1014.18 1014.19 1014.21
1006.28 1006.52 1006.86 1007.24 1007.57 1007.79 1007.85 1007.75 1007.52 1007.23 1006.97 1006.82 1006.84 1007.03 1007.39 1007.87 1008.40 1008.91 1009.35 1009.70 1009.95 1010.13 1010.30 1010.49 1010.75 1011.09 1011.51 1011.99 1012.48 1012.96 1013.38 1013.72 1013.98 1014.16 1014.27 1014.35 1014.40 1014.45 1014.50 1014.54 1014.57 1014.60 1014.60 1014.59 1014.57 1014.55 1014.54 1014.54 1014.57
1006.38 1006.73 1007.20 1007.70 1008.13 1008.42 1008.52 1008.42 1008.18 1007.86 1007.56 1007.38 1007.38 1007.57 1007.94 1008.45 1009.01 1009.56 1010.03 1010.38 1010.63 1010.79 1010.91 1011.05 1011.25 1011.53 1011.91 1012.35 1012.83 1013.29 1013.72 1014.07 1014.34 1014.54 1014.67 1014.76 1014.82 1014.87 1014.93 1014.98 1015.02 1015.05 1015.06 1015.05 1015.03 1015.00 1014.98 1014.99 1015.03
1006.66 1007.17 1007.79 1008.42 1008.96 1009.33 1009.47 1009.38 1009.12 1008.76 1008.43 1008.20 1008.17 1008.35 1008.73 1009.26 1009.86 1010.44 1010.94 1011.32 1011.57 1011.70 1011.78 1011.85 1011.96 1012.16 1012.45 1012.82 1013.23 1013.66 1014.06 1014.41 1014.69 1014.90 1015.04 1015.15 1015.23 1015.31 1015.37 1015.44 1015.49 1015.53 1015.55 1015.54 1015.52 1015.49 1015.48 1015.48 1015.52
1007.07 1007.74 1008.50 1009.26 1009.90 1010.34 1010.51 1010.44 1010.16 1009.78 1009.41 1009.15 1009.08 1009.25 1009.63 1010.18 1010.81 1011.43 1011.96 1012.37 1012.62 1012.74 1012.77 1012.77 1012.80 1012.89 1013.08 1013.35 1013.69 1014.05 1014.42 1014.75 1015.03 1015.25 1015.42 1015.55 1015.65 1015.74 1015.82 1015.90 1015.96 1016.00 1016.02 1016.02 1016.01 1015.98 1015.96 1015.96 1015.99
1007.55 1008.33 1009.20 1010.05 1010.76 1011.24 1011.46 1011.39 1011.12 1010.73 1010.34 1010.06 1009.98 1010.13 1010.51 1011.07 1011.72 1012.37 1012.93 1013.36 1013.62 1013.73 1013.73 1013.67 1013.62 1013.62 1013.71 1013.89 1014.14 1014.45 1014.77 1015.09 1015.37 1015.60 1015.79 1015.95 1016.07 1016.18 1016.27 1016.34 1016.40 1016.45 1016.47 1016.47 1016.45 1016.42 1016.40 1016.39 1016.41
1008.01 1008.84 1009.75 1010.63 1011.37 1011.87 1012.11 1012.07 1011.82 1011.45 1011.07 1010.81 1010.73 1010.89 1011.27 1011.83 1012.48 1013.14 1013.72 1014.16 1014.43 1014.53 1014.51 1014.41 1014.31 1014.24 1014.26 1014.36 1014.56 1014.81 1015.11 1015.41 1015.70 1015.95 1016.17 1016.35 1016.49 1016.60 1016.70 1016.77 1016.82 1016.85 1016.87 1016.86 1016.84 1016.81 1016.79 1016.77 1016.77
1008.41 1009.21 1010.08 1010.92 1011.63 1012.13 1012.37 1012.37 1012.17 1011.86 1011.54 1011.33 1011.28 1011.46 1011.84 1012.39 1013.04 1013.69 1014.26 1014.69 1014.96 1015.06 1015.03 1014.92 1014.79 1014.69 1014.67 1014.74 1014.89 1015.13 1015.42 1015.72 1016.03 1016.30 1016.54 1016.74 1016.90 1017.02 1017.11 1017.18 1017.22 1017.24 1017.24 1017.23 1017.21 1017.17 1017.14 1017.12 1017.10
1008.72 1009.41 1010.16 1010.90 1011.53 1011.99 1012.24 1012.28 1012.16 1011.94 1011.73 1011.60 1011.62 1011.83 1012.22 1012.75 1013.37 1013.98 1014.52 1014.93 1015.19 1015.29 1015.26 1015.16 1015.04 1014.95 1014.92 1014.99 1015.15 1015.39 1015.68 1016.01 1016.34 1016.64 1016.91 1017.13 1017.31 1017.44 1017.53 1017.59 1017.62 1017.63 1017.63 1017.61 1017.59 1017.56 1017.53 1017.50 1017.47
1008.97 1009.49 1010.07 1010.64 1011.16 1011.55 1011.80 1011.90 1011.87 1011.78 1011.69 1011.68 1011.79 1012.04 1012.44 1012.95 1013.52 1014.08 1014.56 1014.93 1015.16 1015.26 1015.25 1015.18 1015.09 1015.03 1015.04 1015.14 1015.33 1015.60 1015.92 1016.28 1016.64 1016.97 1017.27 1017.52 1017.71 1017.86 1017.96 1018.02 1018.06 1018.07 1018.07 1018.05 1018.03 1018.01 1017.99 1017.96 1017.93
Thickness
5839 5840 5838 5831 5812 5804 5806 5819 5830 5829 5831 5840 5842 5835 5821 5811 5800 5787 5814 5826 5825 5820 5817 5813 5811 5811 5810 5810 5809 5808 5808 5808 5808 5807 5807 5806 5804 5802 5802 5801 5800 5800 5798 5795 5793 5791 5789 5788 5787
5847 5846 5837 5824 5805 5797 5806 5825 5827 5830 5839 5846 5843 5835 5822 5814 5819 5814 5819 5825 5825 5821 5817 5813 5810 5809 5809 5809 5808 5808 5808 5807 5807 5806 5805 5804 5803 5801 5800 5799 5799 5799 5797 5794 5792 5790 5787 5786 5786
5849 5849 5830 5820 5814 5809 5812 5829 5833 5842 5849 5844 5835 5832 5822 5813 5819 5818 5823 5828 5826 5821 5816 5811 5810 5808 5808 5807 5807 5806 5807 5806 5805 5804 5803 5803 5801 5800 5799 5798 5797 5797 5795 5793 5791 5789 5787 5785 5785
5850 5842 5832 5823 5817 5829 5833 5838 5843 5840 5843 5845 5836 5822 5821 5827 5826 5826 5830 5831 5826 5821 5817 5811 5809 5808 5806 5806 5806 5805 5806 5805 5804 5803 5802 5801 5800 5799 5798 5796 5796 5796 5794 5791 5790 5788 5786 5785 5784
5851 5834 5819 5819 5825 5838 5847 5851 5850 5839 5837 5840 5833 5814 5811 5827 5833 5832 5831 5830 5825 5821 5817 5812 5809 5807 5806 5805 5805 5805 5805 5804 5803 5802 5801 5800 5799 5797 5796 5795 5794 5793 5792 5790 5788 5788 5785 5784 5783
5839 5832 5814 5814 5826 5840 5849 5856 5851 5841 5839 5839 5832 5817 5812 5829 5830 5831 5833 5831 5828 5823 5818 5813 5809 5807 5806 5805 5805 5804 5804 5803 5802 5801 5799 5798 5797 5797 5795 5794 5793 5791 5790 5788 5787 5785 5783 5782 5781
5835 5827 5821 5826 5830 5835 5847 5858 5849 5841 5838 5840 5840 5818 5816 5826 5832 5834 5833 5832 5830 5826 5820 5816 5811 5808 5807 5805 5805 5804 5803 5802 5801 5800 5798 5797 5796 5796 5794 5792 5790 5789 5788 5786 5785 5783 5781 5780 5779
5858 5838 5828 5832 5831 5832 5852 5857 5856 5848 5841 5853 5849 5823 5813 5826 5836 5836 5833 5831 5829 5827 5823 5820 5816 5812 5809 5806 5805 5804 5803 5802 5800 5799 5797 5796 5795 5795 5792 5790 5788 5787 5786 5785 5784 5783 5781 5780 5780
5869 5834 5823 5834 5837 5840 5857 5853 5856 5860 5851 5849 5848 5839 5833 5838 5837 5832 5827 5825 5824 5824 5824 5823 5819 5815 5813 5810 5807 5804 5803 5801 5799 5798 5796 5795 5795 5793 5791 5789 5787 5786 5784 5783 5782 5781 5780 5780 5780
5856 5827 5834 5853 5858 5855 5858 5856 5855 5849 5839 5836 5836 5839 5841 5838 5833 5827 5822 5818 5817 5818 5822 5823 5821 5818 5816 5814 5809 5807 5805 5801 5799 5798 5797 5795 5794 5793 5791 5789 5787 5786 5785 5783 5782 5781 5781 5780 5780
5856 5840 5855 5864 5870 5868 5861 5859 5862 5846 5832 5834 5832 5833 5836 5835 5831 5827 5824 5821 5819 5821 5822 5822 5821 5819 5817 5814 5812 5810 5807 5803 5801 5799 5798 5796 5795 5793 5792 5789 5787 5786 5785 5784 5783 5781 5782 5782 5782
5860 5861 5867 5868 5874 5870 5863 5861 5855 5848 5843 5850 5846 5842 5838 5833 5830 5828 5825 5823 5821 5820 5820 5822 5821 5818 5816 5814 5812 5810 5808 5805 5802 5800 5799 5798 5796 5794 5793 5792 5789 5787 5786 5786 5784 5784 5784 5784 5784
5860 5862 5871 5874 5875 5872 5867 5859 5853 5848 5855 5855 5850 5843 5837 5834 5833 5833 5831 5827 5823 5819 5820 5820 5819 5816 5815 5813 5811 5811 5809 5806 5803 5800 5800 5798 5796 5794 5794 5793 5791 5789 5789 5787 5785 5784 5784 5784 5784
5865 5868 5868 5870 5870 5870 5859 5855 5852 5848 5857 5851 5845 5840 5839 5836 5834 5832 5828 5825 5822 5820 5819 5820 5819 5816 5815 5813 5811 5810 5810 5807 5804 5802 5800 5799 5797 5796 5794 5792 5791 5791 5789 5788 5787 5785 5783 5783 5782
5872 5858 5858 5864 5867 5867 5861 5840 5845 5855 5857 5847 5843 5840 5838 5837 5835 5831 5829 5826 5824 5822 5821 5820 5819 5817 5815 5813 5812 5811 5810 5808 5805 5802 5800 5799 5798 5796 5794 5793 5791 5791 5790 5789 5787 5786 5785 5783 5782
5860 5846 5834 5856 5866 5869 5852 5822 5844 5859 5854 5845 5843 5840 5837 5835 5835 5834 5832 5829 5827 5824 5821 5820 5821 5817 5814 5813 5812 5811 5811 5808 5806 5803 5801 5799 5797 5797 5795 5793 5792 5792 5791 5790 5787 5786 5783 5781 5780
5841 5828 5834 5848 5870 5869 5853 5831 5848 5861 5854 5845 5843 5841 5837 5834 5834 5835 5834 5831 5828 5825 5821 5819 5819 5816 5814 5813 5812 5811 5810 5808 5806 5804 5801 5799 5798 5797 5795 5793 5792 5793 5791 5789 5788 5784 5782 5780 5779
5825 5834 5840 5843 5864 5865 5851 5843 5849 5860 5856 5849 5846 5842 5837 5834 5834 5836 5835 5833 5829 5826 5823 5820 5818 5816 5815 5813 5811 5810 5809 5807 5806 5804 5801 5799 5798 5797 5795 5794 5793 5793 5790 5788 5787 5784 5783 5781 5780
5844 5843 5840 5852 5869 5860 5848 5844 5850 5858 5856 5850 5847 5842 5837 5837 5840 5839 5837 5835 5830 5825 5821 5819 5816 5815 5813 5810 5807 5805 5803 5804 5804 5803 5801 5799 5798 5797 5795 5794 5793 5791 5789 5787 5786 5784 5781 5780 5780
5846 5841 5842 5856 5869 5859 5848 5845 5855 5860 5857 5855 5850 5844 5840 5838 5837 5836 5836 5834 5829 5824 5821 5819 5816 5814 5813 5811 5809 5807 5806 5805 5804 5803 5801 5799 5798 5797 5796 5794 5793 5791 5789 5786 5785 5783 5780 5780 5780
5846 5843 5843 5846 5861 5859 5846 5835 5845 5854 5859 5855 5853 5850 5848 5842 5836 5833 5834 5832 5830 5825 5822 5820 5817 5815 5813 5812 5810 5808 5805 5803 5801 5800 5798 5799 5798 5797 5795 5794 5792 5791 5788 5785 5785 5783 5780 5777 5778
5837 5859 5856 5852 5843 5835 5840 5810 5828 5840 5841 5843 5848 5849 5848 5846 5840 5835 5834 5832 5830 5828 5826 5823 5819 5816 5814 5812 5809 5804 5799 5796 5798 5799 5798 5798 5798 5797 5796 5794 5792 5790 5788 5785 5785 5784 5783 5779 5775
5850 5863 5856 5850 5840 5831 5833 5816 5815 5834 5824 5833 5845 5848 5849 5847 5841 5836 5835 5834 5833 5831 5827 5823 5819 5815 5813 5811 5809 5805 5801 5799 5800 5799 5797 5796 5796 5796 5795 5793 5792 5789 5787 5784 5783 5782 5781 5780 5776
5862 5855 5851 5847 5834 5811 5820 5812 5805 5824 5823 5832 5843 5845 5845 5846 5843 5839 5838 5835 5833 5831 5827 5823 5817 5813 5812 5809 5807 5804 5800 5798 5796 5795 5793 5793 5794 5794 5794 5792 5790 5788 5786 5784 5783 5782 5780 5778 5777
5854 5834 5813 5804 5801 5804 5828 5817 5811 5835 5841 5839 5840 5842 5844 5842 5838 5835 5832 5830 5828 5826 5823 5820 5814 5810 5809 5807 5804 5802 5800 5797 5794 5792 5791 5791 5791 5790 5790 5791 5788 5786 5785 5783 5782 5780 5778 5776 5774
5844 5836 5806 5789 5791 5804 5819 5811 5822 5843 5847 5847 5844 5842 5840 5838 5835 5831 5828 5826 5825 5823 5820 5817 5812 5808 5807 5804 5802 5800 5799 5796 5794 5792 5792 5790 5789 5789 5789 5788 5786 5785 5783 5782 5780 5778 5776 5774 5772
5836 5834 5843 5821 5813 5802 5807 5811 5828 5843 5839 5839 5837 5835 5834 5834 5831 5827 5825 5825 5823 5821 5818 5815 5810 5806 5804 5802 5800 5797 5795 5794 5792 5792 5790 5789 5788 5788 5786 5785 5783 5782 5780 5779 5776 5774 5772 5771 5769
5849 5844 5832 5815 5789 5781 5794 5799 5805 5816 5822 5829 5828 5830 5832 5832 5829 5825 5822 5820 5821 5819 5816 5814 5809 5805 5802 5800 5798 5795 5793 5791 5790 5789 5787 5785 5784 5783 5782 5781 5779 5777 5776 5775 5773 5770 5770 5767 5765
5836 5833 5828 5820 5813 5790 5778 5787 5822 5821 5823 5821 5824 5827 5828 5827 5825 5823 5819 5817 5817 5816 5813 5809 5806 5803 5800 5797 5795 5793 5789 5788 5787 5785 5784 5782 5780 5779 5778 5776 5774 5773 5772 5770 5768 5766 5765 5762 5761
5842 5834 5829 5808 5803 5807 5793 5792 5834 5830 5831 5824 5822 5824 5824 5824 5822 5819 5816 5814 5810 5808 5806 5803 5802 5799 5797 5795 5792 5789 5787 5785 5783 5781 5779 5778 5776 5775 5774 5773 5771 5769 5767 5766 5764 5761 5760 5758 5755